Weather History for Bloomington, IN

Change the Weather History Date:

Saturday, March 15, 2014

  Actual Average Record
Temperature  
Mean Temperature 46 °F 42 °F  
Max Temperature 61 °F 54 °F 79 °F (2012)
Min Temperature 31 °F 31 °F 17 °F (1997)
Degree Days  
Heating Degree Days 19 23  
Month to date heating degree days 428 378  
Since 1 July heating degree days 4990 4446  
Cooling Degree Days 0 0  
Month to date cooling degree days 0 0  
Year to date cooling degree days 0 0  
Moisture  
Dew Point 29 °F    
Average Humidity 54    
Maximum Humidity 82    
Minimum Humidity 25    
Precipitation  
Precipitation 0.00 in 0.13 in 1.06 in (2007)
Month to date precipitation 0.90 1.47  
Year to date precipitation 5.55 7.54  
Sea Level Pressure  
Sea Level Pressure 30.04 in    
Wind  
Wind Speed 5 mph (WNW)    
Max Wind Speed 18 mph    
Max Gust Speed 22 mph    
Visibility 10 miles    
Events      
T = Trace of Precipitation, MM = Missing Value Source: NWS Daily Summary

Daily Weather History Graph

Daily Weather History Graph

Search for Another Location

Airport:

Trip Planner

Search our weather history database for the weather conditions in past years. The results will help you decide how hot, cold, wet, or windy it might be!

Date:

Astronomy

Mar. 15, 2014 Rise Set
Actual Time 7:57 AM EDT 7:53 PM EDT
Civil Twilight 7:31 AM EDT 8:20 PM EDT
Nautical Twilight 7:00 AM EDT 8:51 PM EDT
Astronomical Twilight 6:28 AM EDT 9:22 PM EDT
Moon 7:12 PM EDT (3/15) 7:09 AM EDT (3/15)
Length of Visible Light 12h 49m
Length of Day
11h 55m
Waxing Gibbous, 99% of the Moon is Illuminated
Mar 15
Waxing Gibbous
Mar 16
Full
Mar 23
Last Quarter
Mar 30
New
Apr 7
First Quarter

Hourly Weather History & Observations

Time (EDT) Temp. Windchill Dew Point Humidity Pressure Visibility Wind Dir Wind Speed Gust Speed Precip Events Conditions
12:53 AM 48.9 °F - 30.9 °F 50% 29.95 in 10.0 mi WNW 5.8 mph - N/A   Overcast
1:53 AM 45.0 °F 41.8 °F 32.0 °F 60% 29.96 in 10.0 mi WNW 5.8 mph - N/A   Clear
2:53 AM 39.9 °F 36.7 °F 30.9 °F 70% 29.98 in 10.0 mi West 4.6 mph - N/A   Clear
3:53 AM 41.0 °F 39.0 °F 32.0 °F 70% 29.99 in 10.0 mi West 3.5 mph - N/A   Clear
4:53 AM 35.1 °F 32.2 °F 30.0 °F 82% 29.99 in 10.0 mi WNW 3.5 mph - N/A   Clear
5:53 AM 33.1 °F - 28.0 °F 82% 30.00 in 10.0 mi Calm Calm - N/A   Clear
6:53 AM 34.0 °F 31.0 °F 28.9 °F 82% 30.02 in 10.0 mi WNW 3.5 mph - N/A   Clear
7:53 AM 35.1 °F 31.0 °F 28.9 °F 78% 30.03 in 10.0 mi West 4.6 mph - N/A   Clear
8:53 AM 37.0 °F 34.5 °F 30.9 °F 79% 30.06 in 10.0 mi WSW 3.5 mph - N/A   Clear
9:53 AM 45.0 °F 41.8 °F 33.1 °F 63% 30.07 in 10.0 mi Variable 5.8 mph - N/A   Clear
10:53 AM 48.9 °F - 32.0 °F 52% 30.09 in 10.0 mi Variable 5.8 mph - N/A   Clear
11:53 AM 51.1 °F - 30.9 °F 46% 30.10 in 10.0 mi WSW 9.2 mph - N/A   Clear
12:53 PM 54.0 °F - 28.9 °F 38% 30.10 in 10.0 mi Variable 6.9 mph - N/A   Clear
1:53 PM 55.9 °F - 28.9 °F 36% 30.09 in 10.0 mi West 9.2 mph - N/A   Clear
2:53 PM 57.0 °F - 28.0 °F 33% 30.08 in 10.0 mi Variable 5.8 mph - N/A   Clear
3:53 PM 57.9 °F - 25.0 °F 28% 30.05 in 10.0 mi Calm Calm - N/A   Clear
4:53 PM 60.1 °F - 25.0 °F 26% 30.04 in 10.0 mi Calm Calm - N/A   Clear
5:53 PM 57.9 °F - 26.1 °F 30% 30.03 in 10.0 mi SE 4.6 mph - N/A   Clear
6:53 PM 60.1 °F - 25.0 °F 26% 30.02 in 10.0 mi Calm Calm - N/A   Clear
7:53 PM 54.0 °F - 27.0 °F 35% 30.03 in 10.0 mi East 3.5 mph - N/A   Clear
8:53 PM 39.9 °F 37.8 °F 28.9 °F 65% 30.04 in 10.0 mi North 3.5 mph - N/A   Clear
9:53 PM 50.0 °F - 27.0 °F 41% 30.04 in 10.0 mi NE 6.9 mph - N/A   Clear
10:53 PM 46.9 °F - 26.1 °F 44% 30.06 in 10.0 mi NE 13.8 mph - N/A   Clear
11:53 PM 44.1 °F 38.1 °F 28.0 °F 53% 30.08 in 10.0 mi NE 11.5 mph - N/A   Clear